Volver al catálogo

CZ-6A DEB

ActivoPO
NORAD 60654·DEBRIS·🇨🇳 China

Lanzado Aug 6, 2024 desde Taiyuan Satellite Launch Center

Loading…

Próximos Pases (próximas 24 horas)

TLE

ActualizadoSource: Space-Track

Época: Sep 14, 2026, 17:19 UTC

1 60654U 24140BF  26257.72198653  .00005252  00000-0  65031-3 0  9997
2 60654  88.9713 255.0106 0133082 263.6038  95.0015 14.76437003112585

Sigue CZ-6A DEB en tiempo real con AllMySat

Download on the App Store